#timestamp,LO_Frequency,Hit 
1503183615.5,286047003.3,N
1503183635.3,286047004.6,N
1503183655.2,286047001.7,N
1503183675.0,286047005.0,N
1503183675.9,286047005.0,N
1503183695.7,286047007.6,N
1503183715.6,286047004.9,N
1503183735.4,286047004.6,N
1503183755.2,286047010.2,N
1503183775.1,286047008.4,N
1503183776.0,286047008.4,N
1503183795.8,286047005.4,N
1503183815.6,286047001.3,N
1503183835.5,286047002.4,N
1503183855.3,286047000.7,N
1503183875.1,286047003.6,N
1503183895.9,286047004.3,N
1503183915.7,286047004.3,N
1503183935.5,286046999.8,N
1503183955.4,286047000.9,N
1503183975.2,286046998.4,N
1503183995.0,286047000.4,N
1503183995.9,286047000.4,N
1503184015.7,286047002.0,N
1503184035.6,286047003.3,N
1503184055.4,286047004.0,N
1503184075.2,286047006.0,N
1503184095.1,286047007.3,N
1503184096.0,286047007.3,N
1503184115.8,286047007.1,N
1503184135.6,286047006.4,N
1503184155.5,286047001.5,N
1503184175.3,286047002.4,N
1503184195.1,286047007.6,N
1503184215.9,286047004.8,N
1503184235.7,286047004.0,N
1503184255.5,286047004.1,N
1503184275.4,286047004.8,N
1503184295.2,286047007.5,N
1503184315.0,286047004.5,N
1503184315.9,286047004.5,N
1503184335.8,286047006.9,N
1503184355.6,286047007.3,N
1503184375.4,286047006.1,N
1503184395.2,286047007.3,N
1503184415.1,286047008.4,P
1503184416.0,286047008.4,P
1503184435.8,286047003.1,N
1503184455.7,286047003.0,N
1503184475.5,286047001.0,N
1503184495.3,286047002.6,N
1503184515.1,286047002.1,N
1503184535.9,286047003.5,N
1503184555.7,286047006.2,N
1503184575.6,286047008.0,P
1503184595.4,286047005.1,N
1503184615.2,286047002.1,N
1503184635.0,286047000.6,N
1503184636.0,286047000.6,N
1503184655.8,286047001.6,N
1503184675.6,286047001.9,N
1503184695.4,286046998.8,N
1503184715.3,286046999.4,N
1503184735.1,286046998.1,N
1503184755.8,286046998.6,N
1503184775.7,286047001.1,N
1503184795.5,286047001.7,N
1503184815.3,286047001.3,N
1503184835.2,286046999.8,N
1503184855.9,286047000.2,N
1503184875.7,286047002.1,N
1503184895.6,286047002.0,N
1503184915.4,286047002.7,N
1503184935.2,286046998.7,N
1503184955.0,286046999.2,N
1503184955.9,286046999.2,N
1503184975.8,286046996.7,N
1503184995.6,286046998.8,N
1503185015.4,286046997.4,N
1503185035.3,286046997.0,N
1503185055.1,286046999.5,N
1503185075.8,286047001.2,N
1503185095.7,286046998.8,N
1503185115.5,286046999.0,N
1503185135.3,286046998.1,N
1503185155.2,286046999.0,N
1503185175.9,286046999.4,N
1503185195.7,286046997.3,N
1503185215.5,286046997.4,N
1503185235.4,286046993.4,P
1503185255.2,286046997.1,N
1503185275.1,286046996.9,N
1503185276.0,286046996.9,N
1503185295.8,286046999.6,N
1503185315.6,286046997.2,N
1503185335.4,286046996.9,N
1503185355.3,286047000.3,N
1503185375.1,286046999.4,N
1503185395.8,286046999.8,N
1503185415.7,286047001.8,N
1503185435.5,286047001.9,N
1503185455.3,286047004.3,N
1503185475.2,286046998.5,N
1503185495.9,286046999.3,N
1503185515.7,286046999.3,N
1503185535.6,286046999.5,N
1503185555.4,286046998.1,N
1503185575.2,286047000.7,N
1503185595.0,286047005.3,N
1503185596.0,286047005.3,N
1503185615.8,286047003.4,N
1503185635.6,286047004.4,N
1503185655.4,286047003.5,N
1503185675.3,286047001.7,N
1503185695.1,286046999.9,N
1503185715.8,286047002.5,N
1503185735.7,286047004.1,N
1503185755.5,286047004.1,N
1503185775.3,286047004.7,N
1503185795.2,286047004.5,N
1503185815.9,286047004.6,N
1503185835.7,286047006.4,N
1503185855.6,286047008.7,P
1503185875.4,286047008.5,N
1503185895.2,286047006.6,N
1503185915.1,286047009.2,P
1503185916.0,286047009.2,P
1503185935.8,286047004.4,P
1503185955.6,286047003.8,N
1503185975.5,286047000.0,N
1503185995.3,286047000.8,N
1503186015.1,286046995.1,N
1503186035.9,286046996.8,N
1503186055.7,286046999.7,N
1503186075.5,286046999.3,N
1503186095.4,286046997.1,N
1503186115.2,286046997.6,N
1503186135.0,286046995.6,N
1503186135.9,286046995.6,N
1503186155.8,286046997.7,N
1503186175.6,286046997.7,N
1503186195.4,286046995.4,N
1503186215.2,286046995.5,N
1503186235.1,286046997.1,N
1503186236.0,286046997.1,N
1503186255.8,286046995.9,N
1503186275.6,286046995.0,N
1503186295.5,286046999.1,N
1503186315.3,286047000.9,N
1503186335.1,286047000.8,N
1503186355.9,286047004.1,N
1503186375.7,286047003.7,N
1503186395.5,286047002.5,N
1503186415.4,286047001.0,N
1503186435.2,286046996.5,N
1503186455.0,286046995.1,N
1503186455.9,286046995.1,N
1503186475.8,286046995.6,N
1503186495.6,286046996.1,N
1503186515.4,286046999.5,N
1503186535.3,286046999.6,N
1503186555.1,286046995.6,N
1503186556.0,286046995.6,N
1503186575.8,286046995.5,N
1503186595.7,286046998.9,N
1503186615.5,286047002.6,N
1503186635.3,286047002.0,N
1503186655.2,286047002.6,N
1503186675.9,286047001.4,N
1503186695.7,286047002.1,N
1503186715.6,286046996.5,N
1503186735.4,286046997.7,N
1503186755.2,286046997.4,N
1503186775.0,286046997.1,N
1503186775.9,286046997.1,N
1503186795.8,286046995.3,N
1503186815.6,286046997.2,N
1503186835.4,286046997.2,N
1503186855.3,286046995.7,N
1503186875.1,286046996.7,N
1503186895.8,286047000.8,N
1503186915.7,286046999.3,N
1503186935.5,286046999.5,N
1503186955.3,286046996.9,N
1503186975.2,286046999.5,N
1503186995.9,286047000.5,N
1503187015.7,286047002.1,N
1503187035.6,286047000.2,N
1503187055.4,286047005.7,N
1503187075.2,286047002.9,N
1503187095.0,286047001.5,N
1503187096.0,286047001.5,N
1503187115.8,286047002.6,N
1503187135.6,286047003.7,N
1503187155.4,286047004.7,N
1503187175.3,286047005.5,N
1503187195.1,286047003.3,N
